#�ϑ�����,���ϕ���,���ϕ���,�ő啗��,�ő啗����������,�ő�u�ԕ���,�ő�u�ԕ�����������
#(�N����),(m/s)   ,(16����),(m/s)   ,(16����)        ,(m/s)       ,(16����)            
2018/11/29 0:01,1.8,15,1.8,16,2.9,14
2018/11/29 0:02,1.9,15,1.9,16,3.7,14
2018/11/29 0:03,1.9,15,1.9,15,3.8,15
2018/11/29 0:04,2,15,2,15,3.2,16
2018/11/29 0:05,2,15,2,15,2,15
2018/11/29 0:06,2,15,2,15,2.2,15
2018/11/29 0:07,2,15,2,15,3,14
2018/11/29 0:08,2,15,2,15,3,15
2018/11/29 0:09,2.1,15,2.1,15,3.2,15
2018/11/29 0:10,2.3,15,2.3,15,4.7,15
2018/11/29 0:11,2.4,15,2.4,15,3.1,15
2018/11/29 0:12,2.3,15,2.4,15,2.7,16
2018/11/29 0:13,2.1,15,2.3,15,1.8,15
2018/11/29 0:14,2,15,2.1,15,2.5,15
2018/11/29 0:15,2.1,15,2.1,15,2.6,15
2018/11/29 0:16,2.1,15,2.1,15,2.7,15
2018/11/29 0:17,2.1,15,2.1,15,3.6,16
2018/11/29 0:18,2.2,15,2.2,15,4.3,16
2018/11/29 0:19,2.2,15,2.2,15,2.9,15
2018/11/29 0:20,2,15,2.1,15,2.6,15
2018/11/29 0:21,2.1,15,2.1,15,4.1,16
2018/11/29 0:22,2.2,15,2.2,15,3.7,15
2018/11/29 0:23,2.3,15,2.3,15,3.9,15
2018/11/29 0:24,2.5,15,2.5,15,3.6,16
2018/11/29 0:25,2.6,16,2.6,15,4.8,16
2018/11/29 0:26,2.7,15,2.7,15,3.6,15
2018/11/29 0:27,2.8,15,2.8,15,4.2,14
2018/11/29 0:28,2.8,15,2.8,15,4.7,12
2018/11/29 0:29,3,15,3,15,5.6,13
2018/11/29 0:30,3.1,15,3.1,15,4.5,15
2018/11/29 0:31,3.2,15,3.2,15,5.7,15
2018/11/29 0:32,3.3,15,3.3,15,5.4,16
2018/11/29 0:33,3.4,15,3.4,15,4.8,16
2018/11/29 0:34,3.4,15,3.4,15,5,1
2018/11/29 0:35,3.2,15,3.4,15,2.7,15
2018/11/29 0:36,3.1,15,3.2,15,3.7,15
2018/11/29 0:37,3.1,15,3.1,15,3.9,15
2018/11/29 0:38,3,15,3.1,15,3.7,14
2018/11/29 0:39,2.8,15,2.9,15,3.3,14
2018/11/29 0:40,2.7,15,2.8,15,2.9,15
2018/11/29 0:41,2.6,15,2.7,15,2.7,15
2018/11/29 0:42,2.4,15,2.5,15,3.2,15
2018/11/29 0:43,2.4,15,2.4,15,3.8,16
2018/11/29 0:44,2.2,15,2.3,15,3.2,16
2018/11/29 0:45,2.3,15,2.3,15,3,14
2018/11/29 0:46,2.3,15,2.4,15,3.2,15
2018/11/29 0:47,2.1,15,2.3,15,1.8,16
2018/11/29 0:48,1.9,15,2.1,15,1.3,1
2018/11/29 0:49,1.9,15,1.9,15,2.6,16
2018/11/29 0:50,1.9,15,1.9,15,3.7,15
2018/11/29 0:51,1.9,15,1.9,15,3.7,16
2018/11/29 0:52,1.9,15,1.9,15,2.9,15
2018/11/29 0:53,1.7,15,1.8,15,2.4,14
2018/11/29 0:54,1.7,15,1.7,15,3.5,14
2018/11/29 0:55,1.7,15,1.8,15,2.2,14
2018/11/29 0:56,1.6,14,1.7,15,3,13
2018/11/29 0:57,1.7,14,1.7,15,2.2,16
2018/11/29 0:58,1.8,15,1.8,15,2.6,1
2018/11/29 0:59,1.8,15,1.8,15,2.5,15
2018/11/29 1:00,1.7,15,1.8,15,2.1,16
2018/11/29 1:01,1.5,15,1.7,15,1.5,1
2018/11/29 1:02,1.5,15,1.5,15,1.5,16
2018/11/29 1:03,1.4,16,1.4,15,2.6,16
2018/11/29 1:04,1.4,16,1.4,15,2,2
2018/11/29 1:05,1.4,16,1.4,14,1.6,1
2018/11/29 1:06,1.3,1,1.4,14,1.5,16
2018/11/29 1:07,1.3,1,1.3,14,2.1,4
2018/11/29 1:08,1.3,1,1.3,15,2.4,4
2018/11/29 1:09,1.3,1,1.3,15,2,5
2018/11/29 1:10,1.3,2,1.3,15,1.5,6
2018/11/29 1:11,1.3,2,1.3,15,1,5
2018/11/29 1:12,1.2,2,1.3,15,1.9,15
2018/11/29 1:13,1.3,2,1.3,16,2.7,15
2018/11/29 1:14,1.1,2,1.3,16,1.3,16
2018/11/29 1:15,1.1,2,1.1,16,1.1,5
2018/11/29 1:16,1.1,3,1.1,1,1.3,5
2018/11/29 1:17,1,4,1.1,1,1.1,5
2018/11/29 1:18,0.8,4,1,1,0.6,12
2018/11/29 1:19,0.8,2,0.8,1,1.4,15
2018/11/29 1:20,0.7,1,0.8,2,1.1,1
2018/11/29 1:21,0.8,2,0.8,2,1.4,2
2018/11/29 1:22,0.8,2,0.8,2,2,1
2018/11/29 1:23,0.7,3,0.8,2,2.2,2
2018/11/29 1:24,0.8,3,0.8,2,1.4,4
2018/11/29 1:25,0.9,3,0.9,2,2,5
2018/11/29 1:26,1,2,1,4,2.4,3
2018/11/29 1:27,1,2,1,4,1.4,2
2018/11/29 1:28,1.1,2,1.1,2,1.9,14
2018/11/29 1:29,1.2,2,1.2,2,2.4,15
2018/11/29 1:30,1.3,2,1.3,2,2.1,16
2018/11/29 1:31,1.3,2,1.3,2,1,16
2018/11/29 1:32,1.2,2,1.3,2,1,1
2018/11/29 1:33,1.2,1,1.2,2,1,1
2018/11/29 1:34,1.1,1,1.2,2,1,1
2018/11/29 1:35,1,1,1.1,2,1.4,9
2018/11/29 1:36,1,16,1,2,2.2,8
2018/11/29 1:37,1,16,1,2,2.1,8
2018/11/29 1:38,1,1,1,2,1.3,7
2018/11/29 1:39,0.8,2,1,2,0.4,12
2018/11/29 1:40,0.7,3,0.8,2,0.8,12
2018/11/29 1:41,0.7,10,0.7,2,1,12
2018/11/29 1:42,0.7,10,0.7,2,1.5,10
2018/11/29 1:43,0.8,10,0.8,1,1.8,9
2018/11/29 1:44,0.8,10,0.8,1,1,9
2018/11/29 1:45,0.8,10,0.8,1,1.9,14
2018/11/29 1:46,0.9,11,0.9,16,3.2,9
2018/11/29 1:47,0.8,11,0.9,16,3.3,9
2018/11/29 1:48,0.9,11,0.9,1,2.1,14
2018/11/29 1:49,1,11,1,11,2.4,15
2018/11/29 1:50,1.1,12,1.1,12,1.5,14
2018/11/29 1:51,1.1,12,1.1,12,1.5,16
2018/11/29 1:52,1.1,13,1.1,12,1,16
2018/11/29 1:53,0.9,13,1.1,12,0.1,9
2018/11/29 1:54,0.9,13,0.9,12,0.4,12
2018/11/29 1:55,0.9,12,0.9,12,0.8,9
2018/11/29 1:56,0.8,12,0.9,12,1.5,8
2018/11/29 1:57,0.9,12,0.9,12,3.8,9
2018/11/29 1:58,0.9,12,0.9,12,3.1,1
2018/11/29 1:59,0.9,12,0.9,12,3.6,16
2018/11/29 2:00,0.9,11,1,12,2.9,1
2018/11/29 2:01,0.9,9,0.9,12,1.3,7
2018/11/29 2:02,0.9,8,0.9,13,0.8,6
2018/11/29 2:03,0.9,6,0.9,12,2.1,16
2018/11/29 2:04,1.1,4,1.1,4,1.8,15
2018/11/29 2:05,1.1,2,1.1,4,2,15
2018/11/29 2:06,1.1,1,1.2,1,1.8,16
2018/11/29 2:07,1,1,1.1,1,1.1,9
2018/11/29 2:08,0.9,1,1,1,1.3,15
2018/11/29 2:09,0.8,1,1,1,1.5,1
2018/11/29 2:10,0.7,16,0.8,1,1,16
2018/11/29 2:11,0.7,16,0.7,1,1.4,7
2018/11/29 2:12,0.8,15,0.8,1,1.8,8
2018/11/29 2:13,0.8,13,0.9,1,1.1,8
2018/11/29 2:14,0.8,10,0.8,1,1.9,10
2018/11/29 2:15,0.8,9,0.9,1,2.7,9
2018/11/29 2:16,0.8,9,0.8,1,0.5,2
2018/11/29 2:17,0.8,9,0.8,1,2,10
2018/11/29 2:18,0.9,9,0.9,1,2.6,9
2018/11/29 2:19,0.9,9,1,9,2.5,9
2018/11/29 2:20,0.9,9,0.9,9,1.4,16
2018/11/29 2:21,1,9,1,9,2.2,1
2018/11/29 2:22,1,10,1,9,1.9,2
2018/11/29 2:23,1,9,1,9,1,4
2018/11/29 2:24,1,8,1.1,8,1.8,7
2018/11/29 2:25,0.9,8,1,8,1.5,16
2018/11/29 2:26,1.1,13,1.1,8,2.4,16
2018/11/29 2:27,1.1,16,1.2,15,2.5,15
2018/11/29 2:28,1,16,1.1,15,1.6,8
2018/11/29 2:29,1.1,16,1.1,15,3.5,9
2018/11/29 2:30,1.2,14,1.2,15,2.6,9
2018/11/29 2:31,1.1,11,1.1,15,1.8,12
2018/11/29 2:32,1.2,11,1.2,15,2.9,1
2018/11/29 2:33,1.3,12,1.3,12,3.3,16
2018/11/29 2:34,1.3,12,1.3,12,1.8,16
2018/11/29 2:35,1.2,12,1.3,12,0.5,10
2018/11/29 2:36,1.1,11,1.2,12,0.8,10
2018/11/29 2:37,1,11,1.1,12,1.8,15
2018/11/29 2:38,1.1,11,1.1,12,2,15
2018/11/29 2:39,1.2,12,1.2,12,2.6,14
2018/11/29 2:40,1.2,13,1.2,12,2,14
2018/11/29 2:41,1.2,12,1.2,12,1.9,13
2018/11/29 2:42,1.1,12,1.2,12,2.5,6
2018/11/29 2:43,1.1,10,1.1,12,3.2,8
2018/11/29 2:44,1.1,10,1.1,12,1.9,9
2018/11/29 2:45,1.3,10,1.3,10,2.5,9
2018/11/29 2:46,1.4,11,1.4,10,2.2,10
2018/11/29 2:47,1.6,11,1.6,11,2.1,13
2018/11/29 2:48,1.6,10,1.6,11,2,13
2018/11/29 2:49,1.5,10,1.6,11,2.2,14
2018/11/29 2:50,1.6,11,1.6,11,2.9,14
2018/11/29 2:51,1.7,11,1.7,11,2.4,14
2018/11/29 2:52,1.7,12,1.7,11,3.1,2
2018/11/29 2:53,1.7,12,1.7,11,3.6,11
2018/11/29 2:54,1.7,13,1.7,11,2.7,1
2018/11/29 2:55,1.7,14,1.7,11,2.9,13
2018/11/29 2:56,1.6,14,1.7,11,2,16
2018/11/29 2:57,1.6,14,1.7,11,3,15
2018/11/29 2:58,1.7,15,1.7,11,3.9,16
2018/11/29 2:59,1.7,15,1.7,11,2.9,2
2018/11/29 3:00,1.7,16,1.7,11,2,4
2018/11/29 3:01,1.6,1,1.7,11,1.5,16
2018/11/29 3:02,1.8,1,1.8,1,4.4,8
2018/11/29 3:03,1.9,1,1.9,1,4.2,9
2018/11/29 3:04,2.1,2,2.1,2,4.3,8
2018/11/29 3:05,2.2,5,2.2,4,4.2,8
2018/11/29 3:06,2.2,7,2.2,4,3,9
2018/11/29 3:07,2.2,8,2.2,4,1.9,11
2018/11/29 3:08,2.1,8,2.2,4,1.9,11
2018/11/29 3:09,2,9,2,4,1.4,11
2018/11/29 3:10,2,9,2,4,2,7
2018/11/29 3:11,2,9,2,4,1.8,7
2018/11/29 3:12,1.8,8,2,4,1.5,6
2018/11/29 3:13,1.6,8,1.8,4,0.9,4
2018/11/29 3:14,1.3,8,1.5,4,0.4,16
2018/11/29 3:15,1,8,1.3,5,0.8,2
2018/11/29 3:16,0.9,8,1,7,1,13
2018/11/29 3:17,0.8,8,0.9,8,1.9,11
2018/11/29 3:18,0.8,8,0.8,8,1.8,11
2018/11/29 3:19,0.8,8,0.8,9,1.4,10
2018/11/29 3:20,0.8,11,0.8,9,1,15
2018/11/29 3:21,0.7,14,0.8,9,1.6,15
2018/11/29 3:22,0.7,14,0.7,8,1.3,16
2018/11/29 3:23,0.7,14,0.7,8,0.6,12
2018/11/29 3:24,0.7,14,0.7,8,1,16
2018/11/29 3:25,0.9,14,0.9,8,2.7,12
2018/11/29 3:26,1,13,1,13,2.4,12
2018/11/29 3:27,1.1,13,1.1,13,3.3,13
2018/11/29 3:28,1.3,14,1.3,14,4.3,14
2018/11/29 3:29,1.4,14,1.4,14,4.2,14
2018/11/29 3:30,1.4,14,1.5,14,2.5,1
2018/11/29 3:31,1.4,14,1.4,14,1.3,1
2018/11/29 3:32,1.6,14,1.6,14,3.7,16
2018/11/29 3:33,1.9,14,1.9,14,4.7,16
2018/11/29 3:34,2,14,2,14,3,4
2018/11/29 3:35,1.9,15,2,14,3.5,3
2018/11/29 3:36,1.9,16,1.9,14,3.1,3
2018/11/29 3:37,1.9,1,2,14,3.1,3
2018/11/29 3:38,1.7,1,1.9,14,1.4,10
2018/11/29 3:39,1.6,16,1.6,14,2.4,13
2018/11/29 3:40,1.5,16,1.6,14,1.5,12
2018/11/29 3:41,1.7,2,1.7,14,2.2,6
2018/11/29 3:42,1.6,4,1.7,14,3,8
2018/11/29 3:43,1.4,7,1.6,14,1.8,8
2018/11/29 3:44,1.3,9,1.3,14,1.4,12
2018/11/29 3:45,1.3,12,1.3,16,2.6,13
2018/11/29 3:46,1.4,12,1.4,16,2.7,13
2018/11/29 3:47,1.3,12,1.4,1,2,13
2018/11/29 3:48,1.4,12,1.4,2,1,12
2018/11/29 3:49,1.3,12,1.4,2,2.2,13
2018/11/29 3:50,1.4,12,1.4,2,2,12
2018/11/29 3:51,1.3,12,1.4,2,1,15
2018/11/29 3:52,1.2,13,1.3,5,1.8,16
2018/11/29 3:53,1.2,13,1.2,12,1.8,16
2018/11/29 3:54,1.3,13,1.3,12,2.6,5
2018/11/29 3:55,1.3,14,1.3,12,3,4
2018/11/29 3:56,1.4,14,1.4,12,3.9,5
2018/11/29 3:57,1.5,15,1.5,15,3.5,7
2018/11/29 3:58,1.5,1,1.5,15,2.9,8
2018/11/29 3:59,1.5,3,1.5,15,1.8,16
2018/11/29 4:00,1.4,3,1.5,15,1.1,10
2018/11/29 4:01,1.4,4,1.4,15,1.1,11
2018/11/29 4:02,1.4,4,1.4,15,0.9,1
2018/11/29 4:03,1.3,4,1.3,15,0.6,14
2018/11/29 4:04,1.2,5,1.3,15,1.9,6
2018/11/29 4:05,1.1,5,1.3,15,2.4,7
2018/11/29 4:06,1,10,1.1,15,3.2,9
2018/11/29 4:07,1.1,12,1.1,15,3.1,12
2018/11/29 4:08,1.1,11,1.1,2,3,10
2018/11/29 4:09,1.4,11,1.4,3,5.4,9
2018/11/29 4:10,1.6,10,1.6,10,4.5,11
2018/11/29 4:11,1.7,11,1.7,11,3.6,1
2018/11/29 4:12,1.9,11,1.9,11,4.1,16
2018/11/29 4:13,2.1,11,2.1,11,3.2,16
2018/11/29 4:14,2.1,12,2.1,11,2.2,16
2018/11/29 4:15,2.1,13,2.1,11,1.9,15
2018/11/29 4:16,2,14,2.1,11,1.9,15
2018/11/29 4:17,1.8,15,2,11,1,2
2018/11/29 4:18,1.7,16,1.8,11,1.3,2
2018/11/29 4:19,1.4,16,1.7,11,1.1,1
2018/11/29 4:20,1.3,16,1.4,11,2.2,16
2018/11/29 4:21,1.3,16,1.4,11,3.2,1
2018/11/29 4:22,1.4,1,1.4,11,6.3,1
2018/11/29 4:23,1.4,1,1.4,11,4.8,1
2018/11/29 4:24,1.7,1,1.7,12,6.5,4
2018/11/29 4:25,1.9,2,1.9,13,4.5,4
2018/11/29 4:26,1.9,2,1.9,14,3.7,3
2018/11/29 4:27,2.1,2,2.1,2,3.6,2
2018/11/29 4:28,2.3,2,2.3,2,5,2
2018/11/29 4:29,2.4,2,2.4,2,3.1,2
2018/11/29 4:30,2.6,2,2.6,2,5.2,15
2018/11/29 4:31,2.6,2,2.6,2,2.6,16
2018/11/29 4:32,2.3,1,2.5,2,1,1
2018/11/29 4:33,2.1,1,2.3,2,1,10
2018/11/29 4:34,1.8,16,2.1,2,0.8,12
2018/11/29 4:35,1.6,15,1.8,2,2,14
2018/11/29 4:36,1.6,15,1.6,2,3.2,13
2018/11/29 4:37,1.5,15,1.6,2,2.1,15
2018/11/29 4:38,1.3,14,1.5,2,1.4,12
2018/11/29 4:39,1.3,13,1.3,2,2.4,13
2018/11/29 4:40,1.1,13,1.3,2,2.9,15
2018/11/29 4:41,1.2,13,1.2,2,5,15
2018/11/29 4:42,1.5,13,1.5,1,6.4,15
2018/11/29 4:43,1.7,14,1.7,1,4.8,15
2018/11/29 4:44,2,14,2,14,5.6,16
2018/11/29 4:45,2.3,14,2.3,14,7,16
2018/11/29 4:46,2.3,14,2.4,14,4.4,16
2018/11/29 4:47,2.5,15,2.5,15,5.1,2
2018/11/29 4:48,2.7,15,2.7,15,5.2,1
2018/11/29 4:49,2.8,16,2.8,16,4.1,16
2018/11/29 4:50,3,16,3,16,6,15
2018/11/29 4:51,3,16,3,16,4.1,1
2018/11/29 4:52,2.9,16,3,16,4.5,2
2018/11/29 4:53,2.9,1,2.9,16,4.1,3
2018/11/29 4:54,2.9,1,2.9,16,4.4,2
2018/11/29 4:55,2.7,1,2.8,16,4.9,1
2018/11/29 4:56,3,1,3,16,7.7,2
2018/11/29 4:57,2.9,1,3,16,7.9,1
2018/11/29 4:58,2.9,2,3,16,5,2
2018/11/29 4:59,3.2,2,3.2,2,7.7,16
2018/11/29 5:00,3.1,2,3.2,2,5.2,16
2018/11/29 5:01,3.1,1,3.1,2,3.9,16
2018/11/29 5:02,3.2,1,3.2,2,3.9,15
2018/11/29 5:03,3,1,3.1,2,1.9,15
2018/11/29 5:04,2.7,16,2.9,2,1,14
2018/11/29 5:05,2.6,16,2.7,2,2.5,16
2018/11/29 5:06,2.4,16,2.6,2,3.3,15
2018/11/29 5:07,2.3,16,2.4,2,3.9,15
2018/11/29 5:08,2.3,15,2.3,2,5.2,16
2018/11/29 5:09,2,15,2.3,2,2.6,15
2018/11/29 5:10,1.8,15,1.9,1,3.1,1
2018/11/29 5:11,1.7,15,1.8,1,2.7,16
2018/11/29 5:12,1.5,15,1.6,1,2.7,16
2018/11/29 5:13,1.5,15,1.5,1,1.8,15
2018/11/29 5:14,1.5,15,1.5,16,2.4,5
2018/11/29 5:15,1.5,16,1.6,16,2.2,5
2018/11/29 5:16,1.3,16,1.5,16,0.5,14
2018/11/29 5:17,1.2,16,1.3,16,3.6,16
2018/11/29 5:18,1.1,16,1.2,15,3,16
2018/11/29 5:19,1,1,1.1,15,1.3,3
2018/11/29 5:20,1,1,1,15,1.9,1
2018/11/29 5:21,1,1,1,15,2.5,16
2018/11/29 5:22,1.2,2,1.2,16,6.9,3
2018/11/29 5:23,1.4,2,1.4,16,5.1,2
2018/11/29 5:24,1.7,2,1.7,2,4.9,2
2018/11/29 5:25,1.7,2,1.7,2,3,1
2018/11/29 5:26,1.9,1,1.9,1,3.2,15
2018/11/29 5:27,2,1,2,1,4.9,16
2018/11/29 5:28,2.2,2,2.2,2,5.5,15
2018/11/29 5:29,2.3,2,2.3,2,3.9,2
2018/11/29 5:30,2.4,2,2.4,2,3.8,2
2018/11/29 5:31,2.4,2,2.4,2,3,1
2018/11/29 5:32,2.3,1,2.5,2,4.1,15
2018/11/29 5:33,2.2,1,2.3,2,1.9,15
2018/11/29 5:34,2,16,2.2,2,2.7,14
2018/11/29 5:35,2.1,16,2.1,2,3.3,15
2018/11/29 5:36,2.2,16,2.2,2,3.7,16
2018/11/29 5:37,2.1,16,2.2,2,2.5,14
2018/11/29 5:38,2,16,2.1,2,3.6,16
2018/11/29 5:39,2.1,15,2.1,2,3.5,14
2018/11/29 5:40,2.2,15,2.2,2,4.2,15
2018/11/29 5:41,2.2,15,2.2,2,3.5,16
2018/11/29 5:42,2.2,15,2.2,1,3.7,16
2018/11/29 5:43,2.2,15,2.3,15,4.1,15
2018/11/29 5:44,2.2,15,2.3,15,2.6,16
2018/11/29 5:45,2.1,15,2.2,15,3,16
2018/11/29 5:46,2.1,15,2.1,15,3.2,16
2018/11/29 5:47,2.2,15,2.2,15,3.1,16
2018/11/29 5:48,2.2,16,2.2,15,3.2,1
2018/11/29 5:49,2.1,16,2.2,15,3.3,16
2018/11/29 5:50,2.2,16,2.2,15,6.1,1
2018/11/29 5:51,2.3,16,2.3,15,4.4,2
2018/11/29 5:52,2.3,16,2.3,15,4.7,2
2018/11/29 5:53,2.3,1,2.3,15,4.1,3
2018/11/29 5:54,2.3,1,2.3,16,3.8,2
2018/11/29 5:55,2.3,1,2.3,16,2.6,1
2018/11/29 5:56,2.2,1,2.3,16,2,1
2018/11/29 5:57,2.1,1,2.2,16,1.5,16
2018/11/29 5:58,2,1,2.1,16,1.9,15
2018/11/29 5:59,1.9,1,2,16,1.9,14
2018/11/29 6:00,1.7,1,1.9,16,1.3,15
2018/11/29 6:01,1.4,16,1.6,16,1.8,15
2018/11/29 6:02,1.3,16,1.4,16,3.2,15
2018/11/29 6:03,1.3,16,1.3,1,4.1,15
2018/11/29 6:04,1.4,16,1.4,1,3.2,16
2018/11/29 6:05,1.4,15,1.4,1,2.9,16
2018/11/29 6:06,1.5,15,1.5,1,2,15
2018/11/29 6:07,1.5,15,1.5,1,2.2,16
2018/11/29 6:08,1.5,16,1.5,1,1.4,2
2018/11/29 6:09,1.4,16,1.5,1,1.1,1
2018/11/29 6:10,1.4,16,1.4,1,1.5,16
2018/11/29 6:11,1.4,16,1.4,15,2,16
2018/11/29 6:12,1.4,16,1.5,15,2.5,1
2018/11/29 6:13,1.2,16,1.4,15,1.1,4
2018/11/29 6:14,1.1,16,1.2,15,1.5,15
2018/11/29 6:15,1,16,1.1,15,2.2,15
2018/11/29 6:16,1,16,1,15,1.8,16
2018/11/29 6:17,0.9,16,1,15,2.4,16
2018/11/29 6:18,1,16,1,16,4.3,15
2018/11/29 6:19,1.2,15,1.2,16,2.4,15
2018/11/29 6:20,1.2,15,1.2,16,2.1,14
2018/11/29 6:21,1.2,15,1.2,16,3.2,16
2018/11/29 6:22,1.2,15,1.2,16,2.2,13
2018/11/29 6:23,1.3,14,1.3,15,1.8,12
2018/11/29 6:24,1.4,14,1.4,14,3.2,1
2018/11/29 6:25,1.6,15,1.6,15,6.2,15
2018/11/29 6:26,1.7,15,1.7,15,3.9,1
2018/11/29 6:27,1.7,15,1.7,15,1.4,1
2018/11/29 6:28,1.6,15,1.7,15,1.8,15
2018/11/29 6:29,1.6,15,1.6,15,1.4,16
2018/11/29 6:30,1.7,15,1.7,15,2.7,16
2018/11/29 6:31,1.7,15,1.7,15,2.6,15
2018/11/29 6:32,1.7,15,1.8,15,2.7,16
2018/11/29 6:33,1.8,15,1.8,15,2.2,13
2018/11/29 6:34,1.8,15,1.8,15,2.4,13
2018/11/29 6:35,1.7,15,1.8,15,2.7,12
2018/11/29 6:36,1.7,14,1.7,15,2.9,12
2018/11/29 6:37,1.7,14,1.7,15,2.2,12
2018/11/29 6:38,1.7,14,1.8,15,2,13
2018/11/29 6:39,1.8,14,1.8,15,2.5,13
2018/11/29 6:40,1.7,13,1.8,15,1.6,13
2018/11/29 6:41,1.6,13,1.7,15,1.5,12
2018/11/29 6:42,1.5,13,1.6,15,1.1,13
2018/11/29 6:43,1.4,13,1.5,15,0.5,13
2018/11/29 6:44,1.2,13,1.4,15,0.9,1
2018/11/29 6:45,1.1,14,1.2,14,0.9,1
2018/11/29 6:46,1,14,1.1,14,2.5,1
2018/11/29 6:47,1,14,1,14,2.7,16
2018/11/29 6:48,0.9,15,1,14,1.4,15
2018/11/29 6:49,1,15,1,14,4.2,16
2018/11/29 6:50,1.2,16,1.2,13,4.7,1
2018/11/29 6:51,1.3,16,1.3,13,4.3,1
2018/11/29 6:52,1.5,16,1.5,13,4.1,16
2018/11/29 6:53,1.7,1,1.7,1,3,16
2018/11/29 6:54,1.8,1,1.8,1,2.6,16
2018/11/29 6:55,1.9,1,1.9,1,1.8,2
2018/11/29 6:56,1.9,1,1.9,1,2.2,1
2018/11/29 6:57,2,1,2,1,2.9,1
2018/11/29 6:58,2.1,1,2.1,1,2.5,1
2018/11/29 6:59,2,1,2.1,1,1.5,2
2018/11/29 7:00,1.8,1,1.9,1,3.1,1
2018/11/29 7:01,1.7,1,1.8,1,2.2,16
2018/11/29 7:02,1.7,1,1.7,1,3.2,16
2018/11/29 7:03,1.8,1,1.8,1,3.9,14
2018/11/29 7:04,1.8,1,1.8,1,2.7,14
2018/11/29 7:05,1.9,1,1.9,1,2.5,16
2018/11/29 7:06,1.9,1,1.9,1,2.5,1
2018/11/29 7:07,1.9,1,1.9,1,3,16
2018/11/29 7:08,1.9,16,1.9,1,3.6,1
2018/11/29 7:09,2.1,16,2.1,16,3.8,16
2018/11/29 7:10,2.2,16,2.2,16,3.9,16
2018/11/29 7:11,2.4,16,2.4,16,4.7,16
2018/11/29 7:12,2.4,16,2.4,16,4.9,16
2018/11/29 7:13,2.4,16,2.4,16,3.5,1
2018/11/29 7:14,2.4,16,2.4,16,3.2,1
2018/11/29 7:15,2.5,16,2.5,16,3.7,1
2018/11/29 7:16,2.5,16,2.5,16,3.1,15
2018/11/29 7:17,2.5,16,2.5,16,5.6,15
2018/11/29 7:18,2.7,16,2.7,16,6.2,16
2018/11/29 7:19,2.8,16,2.8,16,5.5,16
2018/11/29 7:20,2.7,16,2.8,16,3.7,16
2018/11/29 7:21,2.5,16,2.7,16,1.9,16
2018/11/29 7:22,2.3,1,2.4,16,1.6,3
2018/11/29 7:23,2.2,1,2.2,16,2.1,4
2018/11/29 7:24,2,1,2.2,16,1,4
2018/11/29 7:25,1.8,1,2,16,1,16
2018/11/29 7:26,1.7,16,1.8,16,1.3,13
2018/11/29 7:27,1.5,16,1.7,16,0.8,15
2018/11/29 7:28,1.1,16,1.5,16,0.4,1
2018/11/29 7:29,0.8,16,1,16,0.1,11
2018/11/29 7:30,0.6,16,0.7,16,1.4,10
2018/11/29 7:31,0.6,15,0.6,16,0.9,9
2018/11/29 7:32,0.5,14,0.6,1,1.1,9
2018/11/29 7:33,0.4,13,0.5,1,0.5,10
2018/11/29 7:34,0.4,14,0.4,1,1.8,16
2018/11/29 7:35,0.6,14,0.6,1,2.6,1
2018/11/29 7:36,0.6,14,0.6,16,2.4,1
2018/11/29 7:37,0.7,14,0.7,1,1.8,15
2018/11/29 7:38,0.8,14,0.8,16,1.4,2
2018/11/29 7:39,0.9,16,0.9,16,1.6,4
2018/11/29 7:40,0.9,2,0.9,16,1.8,4
2018/11/29 7:41,1,2,1,2,1.3,4
2018/11/29 7:42,1.1,3,1.1,3,1.3,7
2018/11/29 7:43,1.1,3,1.1,3,1,8
2018/11/29 7:44,1.1,4,1.1,3,1,8
2018/11/29 7:45,1,5,1.1,3,1.4,8
2018/11/29 7:46,0.9,6,1,3,0.9,8
2018/11/29 7:47,0.9,7,0.9,3,0.6,8
2018/11/29 7:48,0.8,7,0.9,3,0.4,13
2018/11/29 7:49,0.7,8,0.8,3,1,1
2018/11/29 7:50,0.7,8,0.7,3,1.4,5
2018/11/29 7:51,0.7,8,0.7,3,1,7
2018/11/29 7:52,0.7,8,0.7,3,1.5,9
2018/11/29 7:53,0.7,8,0.7,3,1.8,8
2018/11/29 7:54,0.8,8,0.8,4,2.9,8
2018/11/29 7:55,0.8,9,0.8,5,3.3,9
2018/11/29 7:56,0.9,8,0.9,6,3.2,10
2018/11/29 7:57,1,8,1,8,3.7,8
2018/11/29 7:58,1.2,8,1.2,8,3.2,10
2018/11/29 7:59,1.3,8,1.3,8,3.5,10
2018/11/29 8:00,1.4,9,1.4,9,3.6,9
2018/11/29 8:01,1.4,9,1.4,9,1.8,8
2018/11/29 8:02,1.5,10,1.5,10,2.6,11
2018/11/29 8:03,1.5,10,1.5,10,2.1,13
2018/11/29 8:04,1.6,11,1.6,10,2.6,12
2018/11/29 8:05,1.6,11,1.6,10,2.2,12
2018/11/29 8:06,1.6,11,1.6,10,2.1,12
2018/11/29 8:07,1.5,12,1.6,10,1.8,12
2018/11/29 8:08,1.4,12,1.5,10,1,14
2018/11/29 8:09,1.3,13,1.4,10,1.1,1
2018/11/29 8:10,1.2,13,1.3,10,0.9,16
2018/11/29 8:11,1.1,13,1.2,10,0.1,12
2018/11/29 8:12,1,13,1.1,10,0.5,7
2018/11/29 8:13,0.8,12,1,10,0.6,7
2018/11/29 8:14,0.7,11,0.8,11,0.8,7
2018/11/29 8:15,0.6,11,0.7,11,1,11
2018/11/29 8:16,0.5,10,0.5,11,1.3,12
2018/11/29 8:17,0.4,10,0.5,12,0.5,11
2018/11/29 8:18,0.4,11,0.4,12,0.9,14
2018/11/29 8:19,0.4,11,0.4,13,1,13
2018/11/29 8:20,0.4,11,0.4,13,1.1,12
2018/11/29 8:21,0.5,11,0.5,13,0.9,12
2018/11/29 8:22,0.6,12,0.6,13,1.5,11
2018/11/29 8:23,0.6,12,0.6,12,1,12
2018/11/29 8:24,0.7,12,0.7,11,1.6,12
2018/11/29 8:25,0.7,12,0.7,12,1.8,12
2018/11/29 8:26,0.8,12,0.8,12,1.8,9
2018/11/29 8:27,0.8,12,0.8,12,1.6,9
2018/11/29 8:28,0.8,12,0.8,12,1.4,8
2018/11/29 8:29,0.9,11,0.9,12,2.5,10
2018/11/29 8:30,0.9,11,0.9,12,1.8,10
2018/11/29 8:31,0.9,11,0.9,12,1.6,10
2018/11/29 8:32,0.9,11,0.9,12,0.9,9
2018/11/29 8:33,0.8,10,0.9,12,0.8,13
2018/11/29 8:34,0.7,10,0.8,12,0.5,14
2018/11/29 8:35,0.7,10,0.7,12,1,1
2018/11/29 8:36,0.6,10,0.7,12,1,1
2018/11/29 8:37,0.6,9,0.6,12,1,1
2018/11/29 8:38,0.7,6,0.7,12,1.1,4
2018/11/29 8:39,0.6,4,0.7,11,1.3,4
2018/11/29 8:40,0.6,3,0.6,11,1.1,3
2018/11/29 8:41,0.6,3,0.6,11,1,2
2018/11/29 8:42,0.6,2,0.6,10,0.8,2
2018/11/29 8:43,0.6,2,0.6,11,0.4,15
2018/11/29 8:44,0.6,2,0.6,10,0.8,13
2018/11/29 8:45,0.6,1,0.7,10,0.9,11
2018/11/29 8:46,0.7,1,0.7,8,1.4,10
2018/11/29 8:47,0.7,16,0.7,8,1.3,8
2018/11/29 8:48,0.6,14,0.7,5,1.4,9
2018/11/29 8:49,0.6,13,0.6,1,1,10
2018/11/29 8:50,0.6,12,0.6,1,2.5,9
2018/11/29 8:51,0.6,11,0.6,1,1.6,9
2018/11/29 8:52,0.6,11,0.6,1,0.6,10
2018/11/29 8:53,0.6,11,0.6,1,0.4,1
2018/11/29 8:54,0.6,10,0.6,1,2.6,8
2018/11/29 8:55,0.6,10,0.6,1,1.6,7
2018/11/29 8:56,0.6,10,0.6,1,1.9,8
2018/11/29 8:57,0.6,10,0.6,16,2,9
2018/11/29 8:58,0.6,10,0.6,14,1.3,8
2018/11/29 8:59,0.7,10,0.7,10,2.4,9
2018/11/29 9:00,0.6,10,0.7,10,1.1,8
2018/11/29 9:01,0.6,10,0.6,10,1.4,9
2018/11/29 9:02,0.7,9,0.7,10,1.8,8
2018/11/29 9:03,0.7,9,0.7,10,1.9,9
2018/11/29 9:04,0.7,9,0.7,10,1.9,9
2018/11/29 9:05,0.8,10,0.8,9,1.9,10
2018/11/29 9:06,0.8,10,0.8,9,2.5,9
2018/11/29 9:07,0.8,9,0.8,9,2.4,9
2018/11/29 9:08,0.8,9,0.8,9,2.6,8
2018/11/29 9:09,0.8,9,0.9,9,2.7,9
2018/11/29 9:10,1,9,1,9,3,8
2018/11/29 9:11,1.1,9,1.1,9,3,10
2018/11/29 9:12,1.2,9,1.2,9,3.1,10
2018/11/29 9:13,1.3,9,1.3,9,3.3,8
2018/11/29 9:14,1.4,9,1.4,9,2.7,9
2018/11/29 9:15,1.4,9,1.4,9,2.7,8
2018/11/29 9:16,1.4,9,1.4,9,2.5,9
2018/11/29 9:17,1.4,9,1.4,9,1.5,9
2018/11/29 9:18,1.4,9,1.4,9,1.5,9
2018/11/29 9:19,1.3,9,1.4,9,1.1,9
2018/11/29 9:20,1.2,9,1.3,9,0.6,8
2018/11/29 9:21,1.1,9,1.2,9,1.6,9
2018/11/29 9:22,1.1,9,1.1,9,1.9,10
2018/11/29 9:23,0.9,10,1.1,9,1,8
2018/11/29 9:24,0.8,10,0.9,9,0.9,9
2018/11/29 9:25,0.7,10,0.8,9,1.5,9
2018/11/29 9:26,0.7,10,0.7,9,1.4,10
2018/11/29 9:27,0.7,10,0.7,9,1.5,8
2018/11/29 9:28,0.7,9,0.7,9,1.6,9
2018/11/29 9:29,0.7,9,0.7,9,2.2,9
2018/11/29 9:30,0.8,9,0.8,9,2.1,8
2018/11/29 9:31,0.8,9,0.8,9,2.6,10
2018/11/29 9:32,0.8,9,0.8,9,2.1,8
2018/11/29 9:33,0.9,9,0.9,10,2.2,11
2018/11/29 9:34,1,9,1,9,2.2,11
2018/11/29 9:35,1.1,10,1.1,9,2.7,13
2018/11/29 9:36,1.2,10,1.2,10,2.9,12
2018/11/29 9:37,1.3,10,1.3,10,2.6,13
2018/11/29 9:38,1.4,11,1.4,11,1.8,10
2018/11/29 9:39,1.4,11,1.4,11,1.6,11
2018/11/29 9:40,1.4,11,1.4,11,1.6,13
2018/11/29 9:41,1.4,12,1.4,11,2.4,12
2018/11/29 9:42,1.4,12,1.4,11,1.6,12
2018/11/29 9:43,1.4,12,1.4,11,1.3,13
2018/11/29 9:44,1.3,12,1.4,11,2.2,10
2018/11/29 9:45,1.2,12,1.3,11,0.9,1
2018/11/29 9:46,1,12,1.2,11,1.1,10
2018/11/29 9:47,0.9,12,1,11,1.5,9
2018/11/29 9:48,0.9,12,0.9,11,1.4,9
2018/11/29 9:49,0.9,12,0.9,11,1.9,9
2018/11/29 9:50,0.9,11,0.9,12,1.6,9
2018/11/29 9:51,0.8,11,0.9,12,1.4,9
2018/11/29 9:52,0.8,10,0.8,12,1.4,10
2018/11/29 9:53,0.7,10,0.8,12,1,11
2018/11/29 9:54,0.7,10,0.7,12,0.5,8
2018/11/29 9:55,0.6,9,0.7,12,0.8,15
2018/11/29 9:56,0.6,9,0.7,12,0.9,7
2018/11/29 9:57,0.6,9,0.6,12,1.6,9
2018/11/29 9:58,0.7,9,0.7,12,2.4,8
2018/11/29 9:59,0.7,9,0.7,12,1.8,8
2018/11/29 10:00,0.6,9,0.6,11,0.8,15
2018/11/29 10:01,0.6,9,0.6,11,1.5,11
2018/11/29 10:02,0.6,10,0.6,10,1,14
2018/11/29 10:03,0.6,10,0.6,10,1.4,13
2018/11/29 10:04,0.6,12,0.6,10,1.4,14
2018/11/29 10:05,0.7,12,0.7,9,1.4,14
2018/11/29 10:06,0.7,12,0.7,9,0.6,14
2018/11/29 10:07,0.7,12,0.7,9,0.8,9
2018/11/29 10:08,0.6,12,0.7,9,1.5,9
2018/11/29 10:09,0.6,12,0.6,12,2.2,7
2018/11/29 10:10,0.7,12,0.7,12,2.6,11
2018/11/29 10:11,0.8,12,0.8,12,2,9
2018/11/29 10:12,0.8,11,0.8,12,2.4,8
2018/11/29 10:13,0.9,10,0.9,11,3,9
2018/11/29 10:14,0.9,10,0.9,11,2.2,8
2018/11/29 10:15,1,9,1,10,2.4,8
2018/11/29 10:16,1,9,1,10,2.7,9
2018/11/29 10:17,1.1,9,1.1,9,2.2,9
2018/11/29 10:18,1.1,9,1.1,9,2.6,8
2018/11/29 10:19,1.1,9,1.1,9,2.1,8
2018/11/29 10:20,1,9,1.1,9,1.3,15
2018/11/29 10:21,1.1,9,1.1,9,2.6,10
2018/11/29 10:22,1.1,9,1.1,9,2.5,9
2018/11/29 10:23,1,10,1.1,9,1.5,13
2018/11/29 10:24,1,10,1,9,3.3,7
2018/11/29 10:25,0.9,10,1,9,2.4,8
2018/11/29 10:26,1,10,1,9,3,10
2018/11/29 10:27,1,10,1,9,3.2,8
2018/11/29 10:28,1.1,10,1.1,9,4.1,9
2018/11/29 10:29,1.2,10,1.2,10,3.5,8
2018/11/29 10:30,1.4,10,1.4,10,4.4,8
2018/11/29 10:31,1.5,9,1.5,10,5.4,9
2018/11/29 10:32,1.7,9,1.7,9,4.2,9
2018/11/29 10:33,1.9,9,1.9,9,3.5,9
2018/11/29 10:34,1.9,9,1.9,9,3.6,8
2018/11/29 10:35,2,9,2,9,2.9,9
2018/11/29 10:36,2,9,2,9,2.7,7
2018/11/29 10:37,2.1,9,2.1,9,3.8,9
2018/11/29 10:38,2.1,9,2.2,9,4.1,7
2018/11/29 10:39,2.1,9,2.1,9,3.5,9
2018/11/29 10:40,2.1,9,2.1,9,4.8,9
2018/11/29 10:41,2.2,9,2.2,9,4.7,8
2018/11/29 10:42,2,9,2.1,9,3.3,10
2018/11/29 10:43,2,9,2,9,4.8,8
2018/11/29 10:44,2.1,9,2.1,9,4.9,8
2018/11/29 10:45,2.3,9,2.3,9,4.4,9
2018/11/29 10:46,2.4,9,2.4,9,3.9,9
2018/11/29 10:47,2.4,9,2.4,9,5.5,9
2018/11/29 10:48,2.5,8,2.5,9,4.2,8
2018/11/29 10:49,2.5,8,2.6,9,4.8,9
2018/11/29 10:50,2.5,9,2.5,9,4.9,9
2018/11/29 10:51,2.4,9,2.5,9,4.5,8
2018/11/29 10:52,2.6,8,2.6,9,4.4,9
2018/11/29 10:53,2.6,9,2.7,9,4.7,8
2018/11/29 10:54,2.6,9,2.6,9,5,9
2018/11/29 10:55,2.6,9,2.6,9,4.1,8
2018/11/29 10:56,2.5,9,2.6,9,4.4,8
2018/11/29 10:57,2.5,9,2.5,9,5.4,8
2018/11/29 10:58,2.7,9,2.7,9,5.8,8
2018/11/29 10:59,2.6,9,2.6,9,4.1,8